H1 CPF 2 NER 2024 8 22 9 235 01 glonass147 H2 2311401 9147 57517 2024 8 22 0 0 0 2024 8 25 23 45 0 900 1 1 0 0 0 1 H9 10 0 60544 0.00000 0 11328392.787 -21947200.268 6433360.274 10 0 60544 900.00000 0 11511497.091 -22538874.331 3286752.165 10 0 60544 1800.00000 0 11464570.565 -22798684.400 76388.790 10 0 60544 2700.00000 0 11233946.860 -22695409.129 -3135454.805 10 0 60544 3600.00000 0 10872053.609 -22209804.166 -6286445.740 10 0 60544 4500.00000 0 10434986.443 -21335542.039 -9315401.611 10 0 60544 5400.00000 0 9979937.263 -20079628.382 -12163478.654 10 0 60544 6300.00000 0 9562585.584 -18462275.622 -14775316.528 10 0 60544 7200.00000 0 9234563.492 -16516237.947 -17100117.150 10 0 60544 8100.00000 0 9041101.790 -14285634.001 -19092636.342 10 0 60544 9000.00000 0 9018957.422 -11824305.132 -20714068.717 10 0 60544 9900.00000 0 9194710.485 -9193776.689 -21932808.291 10 0 60544 10800.00000 0 9583503.673 -6460906.412 -22725069.723 10 0 60544 11700.00000 0 10188278.384 -3695317.180 -23075357.836 10 0 60544 12600.00000 0 10999540.823 -966720.524 -22976775.900 10 0 60544 13500.00000 0 11995669.105 1657758.078 -22431166.339 10 0 60544 14400.00000 0 13143749.501 4116141.046 -21449080.650 10 0 60544 15300.00000 0 14400907.512 6353941.189 -20049578.703 10 0 60544 16200.00000 0 15716078.469 8326187.470 -18259860.811 10 0 60544 17100.00000 0 17032143.514 9999049.867 -16114739.400 10 0 60544 18000.00000 0 18288341.121 11350995.898 -13655960.256 10 0 60544 18900.00000 0 19422852.370 12373431.148 -10931386.504 10 0 60544 19800.00000 0 20375450.571 13070797.921 -7994061.367 10 0 60544 20700.00000 0 21090102.814 13460129.076 -4901168.369 10 0 60544 21600.00000 0 21517412.992 13570077.317 -1712909.905 10 0 60544 22500.00000 0 21616802.454 13439462.480 1508673.161 10 0 60544 23400.00000 0 21358335.623 13115399.855 4700916.882 10 0 60544 24300.00000 0 20724113.115 12651090.320 7801759.972 10 0 60544 25200.00000 0 19709173.353 12103367.260 10750955.213 10 0 60544 26100.00000 0 18321864.684 11530105.298 13491242.251 10 0 60544 27000.00000 0 16583672.470 10987601.360 15969458.663 10 0 60544 27900.00000 0 14528508.657 10528039.280 18137567.731 10 0 60544 28800.00000 0 12201493.857 10197145.178 19953583.318 10 0 60544 29700.00000 0 9657283.063 10032132.283 21382374.648 10 0 60544 30600.00000 0 6958004.851 10060021.271 22396336.401 10 0 60544 31500.00000 0 4170899.659 10296406.145 22975912.261 10 0 60544 32400.00000 0 1365754.795 10744716.781 23109962.981 10 0 60544 33300.00000 0 -1387758.261 11396008.498 22795972.935 10 0 60544 34200.00000 0 -4022734.911 12229287.024 22040091.999 10 0 60544 35100.00000 0 -6477568.396 13212355.080 20857012.546 10 0 60544 36000.00000 0 -8698257.296 14303145.287 19269684.133 10 0 60544 36900.00000 0 -10640395.418 15451483.939 17308871.257 10 0 60544 37800.00000 0 -12270763.050 16601212.422 15012562.289 10 0 60544 38700.00000 0 -13568454.875 17692578.138 12425240.313 10 0 60544 39600.00000 0 -14525498.741 18664795.426 9597029.135 10 0 60544 40500.00000 0 -15146940.507 19458669.713 6582730.136 10 0 60544 41400.00000 0 -15450392.138 20019175.130 3440767.743 10 0 60544 42300.00000 0 -15465062.468 20297877.441 232063.285 10 0 60544 43200.00000 0 -15230311.636 20255100.205 -2981141.426 10 0 60544 44100.00000 0 -14793790.126 19861742.506 -6136488.320 10 0 60544 45000.00000 0 -14209240.839 19100670.862 -9172711.795 10 0 60544 45900.00000 0 -13534056.900 17967625.552 -12030828.398 10 0 60544 46800.00000 0 -12826698.315 16471601.807 -14655284.222 10 0 60544 47700.00000 0 -12144076.635 14634688.224 -16995037.392 10 0 60544 48600.00000 0 -11539018.315 12491367.510 -19004554.359 10 0 60544 49500.00000 0 -11057914.165 10087307.151 -20644700.340 10 0 60544 50400.00000 0 -10738654.625 7477689.099 -21883506.257 10 0 60544 51300.00000 0 -10608938.535 4725146.840 -22696797.009 10 0 60544 52200.00000 0 -10685027.458 1897394.772 -23068668.542 10 0 60544 53100.00000 0 -10970998.830 -935352.182 -22991804.101 10 0 60544 54000.00000 0 -11458530.200 -3703061.926 -22467623.116 10 0 60544 54900.00000 0 -12127224.433 -6338560.269 -21506259.420 10 0 60544 55800.00000 0 -12945462.827 -8780086.606 -20126368.737 10 0 60544 56700.00000 0 -13871750.708 -10973623.975 -18354768.742 10 0 60544 57600.00000 0 -14856499.091 -12874906.575 -16225918.284 10 0 60544 58500.00000 0 -15844167.296 -14451021.217 -13781245.663 10 0 60544 59400.00000 0 -16775675.901 -15681536.235 -11068338.918 10 0 60544 60300.00000 0 -17590987.700 -16559111.293 -8140014.047 10 0 60544 61200.00000 0 -18231746.946 -17089563.449 -5053279.709 10 0 60544 62100.00000 0 -18643864.586 -17291387.952 -1868219.217 10 0 60544 63000.00000 0 -18779939.338 -17194755.403 1353187.574 10 0 60544 63900.00000 0 -18601411.517 -16840029.191 4548278.554 10 0 60544 64800.00000 0 -18080357.926 -16275867.428 7654935.191 10 0 60544 65700.00000 0 -17200851.557 -15556991.156 10612795.212 10 0 60544 66600.00000 0 -15959828.469 -14741714.500 13364427.801 10 0 60544 67500.00000 0 -14367425.230 -13889342.221 15856448.153 10 0 60544 68400.00000 0 -12446772.748 -13057545.201 18040549.722 10 0 60544 69300.00000 0 -10233255.239 -12299824.914 19874434.464 10 0 60544 70200.00000 0 -7773265.367 -11663173.556 21322623.766 10 0 60544 71100.00000 0 -5122507.454 -11186027.830 22357135.346 10 0 60544 72000.00000 0 -2343919.204 -10896601.633 22958014.121 10 0 60544 72900.00000 0 494702.152 -10811666.698 23113707.979 10 0 60544 73800.00000 0 3323271.569 -10935831.422 22821282.259 10 0 60544 74700.00000 0 6072080.093 -11261347.221 22086469.661 10 0 60544 75600.00000 0 8674441.891 -11768449.911 20923555.210 10 0 60544 76500.00000 0 11069216.128 -12426221.436 19355098.694 10 0 60544 77400.00000 0 13203100.637 -13193935.791 17411499.848 10 0 60544 78300.00000 0 15032603.685 -14022832.938 15130414.240 10 0 60544 79200.00000 0 16525613.296 -14858246.768 12556030.443 10 0 60544 80100.00000 0 17662499.985 -15641998.343 9738221.697 10 0 60544 81000.00000 0 18436707.910 -16314954.436 6731587.571 10 0 60544 81900.00000 0 18854810.444 -16819644.256 3594403.356 10 0 60544 82800.00000 0 18936028.325 -17102824.474 387496.859 10 0 60544 83700.00000 0 18711230.854 -17117884.486 -2826926.127 10 0 60544 84600.00000 0 18221462.187 -16826990.191 -5986485.258 10 0 60544 85500.00000 0 17516054.698 -16202875.178 -9029834.676 10 0 60545 0.00000 0 16650408.871 -15230202.889 -11897853.911 10 0 60545 900.00000 0 15683532.721 -13906440.373 -14534798.829 10 0 60545 1800.00000 0 14675445.632 -12242206.603 -16889386.193 10 0 60545 2700.00000 0 13684554.600 -10261077.212 -18915795.601 10 0 60545 3600.00000 0 12765114.761 -7998853.165 -20574565.140 10 0 60545 4500.00000 0 11964881.035 -5502321.753 -21833364.619 10 0 60545 5400.00000 0 11323050.266 -2827560.125 -22667630.799 10 0 60545 6300.00000 0 10868580.937 -37850.696 -23061051.963 10 0 60545 7200.00000 0 10618961.660 2798705.782 -23005892.088 10 0 60545 8100.00000 0 10579480.795 5611780.985 -22503147.910 10 0 60545 9000.00000 0 10743028.371 8331506.390 -21562535.415 10 0 60545 9900.00000 0 11090439.020 10891145.723 -20202305.537 10 0 60545 10800.00000 0 11591361.732 13229641.434 -18448892.216 10 0 60545 11700.00000 0 12205619.821 15293929.181 -16336399.208 10 0 60545 12600.00000 0 12885003.606 17040923.866 -13905935.393 10 0 60545 13500.00000 0 13575419.744 18439094.441 -11204811.408 10 0 60545 14400.00000 0 14219305.855 19469562.013 -8285613.370 10 0 60545 15300.00000 0 14758207.556 20126675.831 -5205172.125 10 0 60545 16200.00000 0 15135408.012 20418043.889 -2023448.755 10 0 60545 17100.00000 0 15298497.779 20364018.088 1197641.163 10 0 60545 18000.00000 0 15201775.246 19996657.017 4395440.618 10 0 60545 18900.00000 0 14808375.332 19358211.654 7507776.997 10 0 60545 19800.00000 0 14092035.751 18499199.406 10474175.930 10 0 60545 20700.00000 0 13038425.778 17476149.221 13237038.846 10 0 60545 21600.00000 0 11645981.183 16349114.099 15742760.965 10 0 60545 22500.00000 0 9926210.015 15179056.756 17942767.996 10 0 60545 23400.00000 0 7903456.308 14025219.041 19794451.748 10 0 60545 24300.00000 0 5614131.548 12942585.829 21261987.199 10 0 60545 25200.00000 0 3105445.838 11979549.545 22317016.198 10 0 60545 26100.00000 0 433691.410 11175872.636 22939185.623 10 0 60545 27000.00000 0 -2337850.587 10561032.355 23116530.839 10 0 60545 27900.00000 0 -5141293.835 10153016.040 22845698.077 10 0 60545 28800.00000 0 -7906723.134 9957616.151 22132002.337 10 0 60545 29700.00000 0 -10564857.651 9968253.475 20989320.298 10 0 60545 30600.00000 0 -13049692.073 10166335.096 19439820.529 10 0 60545 31500.00000 0 -15301007.520 10522131.538 17513536.116 10 0 60545 32400.00000 0 -17266649.497 10996136.103 15247787.561 10 0 60545 33300.00000 0 -18904479.491 11540849.409 12686466.386 10 0 60545 34200.00000 0 -20183920.193 12102914.462 9879192.532 10 0 60545 35100.00000 0 -21087030.795 12625512.871 6880360.946 10 0 60545 36000.00000 0 -21609068.151 13050921.750 3748094.963 10 0 60545 36900.00000 0 -21758510.704 13323123.874 543126.115 10 0 60545 37800.00000 0 -21556544.344 13390361.080 -2672378.492 10 0 60545 38700.00000 0 -21036031.786 13207522.985 -5836018.791 10 0 60545 39600.00000 0 -20240008.612 12738269.653 -8886371.118 10 0 60545 40500.00000 0 -19219769.064 11956797.721 -11764180.782 10 0 60545 41400.00000 0 -18032621.926 10849174.262 -14413514.537 10 0 60545 42300.00000 0 -16739410.793 9414180.595 -16782850.256 10 0 60545 43200.00000 0 -15401903.037 7663628.796 -18826082.366 10 0 60545 44100.00000 0 -14080157.313 5622135.622 -20503423.213 10 0 60545 45000.00000 0 -12829980.451 3326361.432 -21782182.545 10 0 60545 45900.00000 0 -11700580.819 823744.059 -22637409.669 10 0 60545 46800.00000 0 -10732517.022 -1829221.165 -23052385.517 10 0 60545 47700.00000 0 -9956028.374 -4569084.889 -23018954.719 10 0 60545 48600.00000 0 -9389817.545 -7327844.179 -22537690.837 10 0 60545 49500.00000 0 -9040336.716 -10035540.791 -21617891.140 10 0 60545 50400.00000 0 -8901607.397 -12622949.537 -20277400.533 10 0 60545 51300.00000 0 -8955581.409 -15024245.068 -18542267.615 10 0 60545 52200.00000 0 -9173027.699 -17179535.985 -16446239.148 10 0 60545 53100.00000 0 -9514907.208 -19037160.543 -14030102.458 10 0 60545 54000.00000 0 -9934177.219 -20555648.000 -11340888.494 10 0 60545 54900.00000 0 -10377948.220 -21705263.714 -8430951.126 10 0 60545 55800.00000 0 -10789901.149 -22469073.487 -5356941.019 10 0 60545 56700.00000 0 -11112861.693 -22843483.060 -2178694.694 10 0 60545 57600.00000 0 -11291421.565 -22838230.938 1041938.801 10 0 60545 58500.00000 0 -11274494.658 -22475835.947 4242309.746 10 0 60545 59400.00000 0 -11017698.882 -21790524.097 7360193.563 10 0 60545 60300.00000 0 -10485462.021 -20826681.401 10335005.851 10 0 60545 61200.00000 0 -9652761.974 -19636899.277 13108982.272 10 0 60545 62100.00000 0 -8506427.415 -18279696.134 15628299.960 10 0 60545 63000.00000 0 -7045943.778 -16817012.075 17844118.634 10 0 60545 63900.00000 0 -5283730.480 -15311582.739 19713521.525 10 0 60545 64800.00000 0 -3244877.590 -13824302.810 21200338.555 10 0 60545 65700.00000 0 -966352.761 -12411689.567 22275836.779 10 0 60545 66600.00000 0 1504288.728 -11123552.112 22919265.848 10 0 60545 67500.00000 0 4110637.590 -10000962.807 23118249.121 10 0 60545 68400.00000 0 6789536.364 -9074614.484 22869013.964 10 0 60545 69300.00000 0 9473470.904 -8363630.716 22176457.657 10 0 60545 70200.00000 0 12093149.381 -7874877.487 21054048.268 10 0 60545 71100.00000 0 14580163.072 -7602803.774 19523562.638 10 0 60545 72000.00000 0 16869619.862 -7529816.707 17614666.464 10 0 60545 72900.00000 0 18902642.443 -7627174.878 15364344.181 10 0 60545 73800.00000 0 20628628.643 -7856361.948 12816188.981 10 0 60545 74700.00000 0 22007180.840 -8170882.760 10019565.921 10 0 60545 75600.00000 0 23009624.921 -8518406.556 7028663.405 10 0 60545 76500.00000 0 23620055.902 -8843167.293 3901450.586 10 0 60545 77400.00000 0 23835866.808 -9088520.101 698560.191 10 0 60545 78300.00000 0 23667738.726 -9199546.139 -2517882.110 10 0 60545 79200.00000 0 23139092.303 -9125595.784 -5685459.414 10 0 60545 80100.00000 0 22285023.439 -8822662.336 -8742673.171 10 0 60545 81000.00000 0 21150767.530 -8255485.295 -11630137.097 10 0 60545 81900.00000 0 19789756.429 -7399293.335 -14291732.099 10 0 60545 82800.00000 0 18261349.447 -6241112.073 -16675699.465 10 0 60545 83700.00000 0 16628333.511 -4780579.873 -18735650.812 10 0 60545 84600.00000 0 14954297.269 -3030235.455 -20431474.872 10 0 60545 85500.00000 0 13300989.369 -1015263.300 -21730123.189 10 0 60546 0.00000 0 11725771.907 1227294.286 -22606259.116 10 0 60546 900.00000 0 10279275.075 3649828.565 -23042757.605 10 0 60546 1800.00000 0 9003353.573 6195903.872 -23031044.661 10 0 60546 2700.00000 0 7929427.710 8802377.985 -22571271.077 10 0 60546 3600.00000 0 7077280.923 11401813.065 -21672315.345 10 0 60546 4500.00000 0 6454363.215 13925078.503 -20351615.806 10 0 60546 5400.00000 0 6055629.697 16304037.356 -18634834.721 10 0 60546 6300.00000 0 5863920.622 18474204.461 -16555360.380 10 0 60546 7200.00000 0 5850866.357 20377265.146 -14153656.633 10 0 60546 8100.00000 0 5978278.377 21963349.138 -11476472.384 10 0 60546 9000.00000 0 6199966.641 23192964.355 -8575926.518 10 0 60546 9900.00000 0 6463905.437 24038509.497 -5508486.461 10 0 60546 10800.00000 0 6714654.884 24485302.184 -2333860.870 10 0 60546 11700.00000 0 6895934.290 24532079.857 886171.178 10 0 60546 12600.00000 0 6953237.145 24190953.145 4088970.718 10 0 60546 13500.00000 0 6836375.817 23486814.637 7212264.585 10 0 60546 14400.00000 0 6501847.227 22456229.133 10195361.531 10 0 60546 15300.00000 0 5914918.592 21145853.368 12980334.363 10 0 60546 16200.00000 0 5051344.529 19610452.914 15513144.713 10 0 60546 17100.00000 0 3898642.651 17910600.693 17744688.549 10 0 60546 18000.00000 0 2456873.710 16110154.511 19631742.391 10 0 60546 18900.00000 0 738893.319 14273619.813 21137792.583 10 0 60546 19800.00000 0 -1229935.492 12463508.036 22233732.493 10 0 60546 20700.00000 0 -3412557.102 10737800.578 22898415.235 10 0 60546 21600.00000 0 -5761531.923 9147623.429 23119052.429 10 0 60546 22500.00000 0 -8220784.899 7735228.256 22891452.383 10 0 60546 23400.00000 0 -10727721.956 6532362.754 22220093.981 10 0 60546 24300.00000 0 -13215627.426 5559096.631 21118035.504 10 0 60546 25200.00000 0 -15616244.082 4823150.719 19606660.384 10 0 60546 26100.00000 0 -17862429.808 4319755.828 17715264.771 10 0 60546 27000.00000 0 -19890781.790 4032046.155 15480494.460 10 0 60546 27900.00000 0 -21644120.277 3931969.887 12945641.399 10 0 60546 28800.00000 0 -23073729.462 3981678.357 10159812.612 10 0 60546 29700.00000 0 -24141262.821 4135335.130 7176986.700 10 0 60546 30600.00000 0 -24820233.896 4341268.875 4054975.353 10 0 60546 31500.00000 0 -25097030.308 4544379.387 854309.288 10 0 60546 32400.00000 0 -24971408.548 4688695.333 -2362930.314 10 0 60546 33300.00000 0 -24456448.471 4719975.645 -5534312.601 10 0 60546 34200.00000 0 -23577968.954 4588244.431 -8598266.816 10 0 60546 35100.00000 0 -22373428.692 4250151.733 -11495277.544 10 0 60546 36000.00000 0 -20890357.693 3671059.574 -14169042.062 10 0 60546 36900.00000 0 -19184384.781 2826764.048 -16567567.001 10 0 60546 37800.00000 0 -17316943.395 1704779.384 -18644182.755 10 0 60546 38700.00000 0 -15352751.569 305128.169 -20358455.629 10 0 60546 39600.00000 0 -13357171.444 -1359397.360 -21676979.699 10 0 60546 40500.00000 0 -11393558.776 -3263515.874 -22574032.738 10 0 60546 41400.00000 0 -9520713.299 -5370269.524 -23032083.161 10 0 60546 42300.00000 0 -7790536.627 -7632336.271 -23042137.837 10 0 60546 43200.00000 0 -6245995.622 -9993788.675 -22603923.618 10 0 60546 44100.00000 0 -4919476.376 -12392226.917 -21725898.651 10 0 60546 45000.00000 0 -3831597.543 -14761197.876 -20425092.792 10 0 60546 45900.00000 0 -2990532.417 -17032799.829 -18726779.746 10 0 60546 46800.00000 0 -2391867.681 -19140364.209 -16663986.889 10 0 60546 47700.00000 0 -2019004.102 -21021102.267 -14276851.999 10 0 60546 48600.00000 0 -1844081.381 -22618605.698 -11611839.273 10 0 60546 49500.00000 0 -1829387.103 -23885096.186 -8720829.956 10 0 60546 50400.00000 0 -1929189.073 -24783329.241 -5660105.651 10 0 60546 51300.00000 0 -2091912.205 -25288072.251 -2489244.696 10 0 60546 52200.00000 0 -2262566.433 -25387094.715 730046.106 10 0 60546 53100.00000 0 -2385321.423 -25081629.329 3935140.677 10 0 60546 54000.00000 0 -2406117.714 -24386285.139 7063719.236 10 0 60546 54900.00000 0 -2275202.535 -23328417.281 10054985.503 10 0 60546 55800.00000 0 -1949482.011 -21946980.811 12850851.091 10 0 60546 56700.00000 0 -1394589.607 -20290917.926 15397063.632 10 0 60546 57600.00000 0 -586582.950 -18417147.275 17644256.643 10 0 60546 58500.00000 0 486802.737 -16388240.523 19548901.029 10 0 60546 59400.00000 0 1825397.505 -14269883.983 21074140.412 10 0 60546 60300.00000 0 3416367.744 -12128231.558 22190495.056 10 0 60546 61200.00000 0 5234525.175 -10027259.218 22876421.858 10 0 60546 62100.00000 0 7243161.116 -8026230.600 23118720.748 10 0 60546 63000.00000 0 9395371.685 -6177378.154 22912780.773 10 0 60546 63900.00000 0 11635819.313 -4523895.002 22262661.991 10 0 60546 64800.00000 0 13902858.153 -3098319.479 21181012.258 10 0 60546 65700.00000 0 16130935.975 -1921377.950 19688820.783 10 0 60546 66600.00000 0 18253173.774 -1001332.571 17815013.176 10 0 60546 67500.00000 0 20204016.939 -333859.732 15595895.420 10 0 60546 68400.00000 0 21921848.711 97536.857 13074456.859 10 0 60546 69300.00000 0 23351457.956 320596.638 10299544.909 10 0 60546 70200.00000 0 24446258.997 372895.775 7324926.556 10 0 60546 71100.00000 0 25170171.237 300023.256 4208253.973 10 0 60546 72000.00000 0 25499080.047 153416.418 1009953.602 10 0 60546 72900.00000 0 25421817.603 -12052.786 -2207940.334 10 0 60546 73800.00000 0 24940622.125 -140638.875 -5382985.596 10 0 60546 74700.00000 0 24071055.621 -178322.888 -8453541.820 10 0 60546 75600.00000 0 22841382.837 -75341.183 -11359967.004 10 0 60546 76500.00000 0 21291436.631 211464.518 -14045777.204 10 0 60546 77400.00000 0 19471016.566 716576.014 -16458746.633 10 0 60546 78300.00000 0 17437887.143 1464095.037 -18551926.498 10 0 60546 79200.00000 0 15255458.870 2466480.483 -20284562.509 10 0 60546 80100.00000 0 12990248.792 3723781.314 -21622892.907 10 0 60546 81000.00000 0 10709226.327 5223399.115 -22540811.241 10 0 60546 81900.00000 0 8477155.066 6940392.173 -23020380.737 10 0 60546 82800.00000 0 6354041.465 8838310.025 -23052189.923 10 0 60546 83700.00000 0 4392796.806 10870525.139 -22635542.290 10 0 60546 84600.00000 0 2637209.923 12982007.369 -21778475.830 10 0 60546 85500.00000 0 1120315.192 15111467.965 -20497611.670 10 0 60547 0.00000 0 -136776.226 17193783.997 -18817834.427 10 0 60547 900.00000 0 -1125534.118 19162603.212 -16771809.082 10 0 60547 1800.00000 0 -1850127.441 20953017.535 -14399345.831 10 0 60547 2700.00000 0 -2327001.238 22504196.678 -11746622.067 10 0 60547 3600.00000 0 -2583929.474 23761868.243 -8865278.895 10 0 60547 4500.00000 0 -2658585.762 24680540.853 -5811409.242 10 0 60547 5400.00000 0 -2596693.665 25225376.277 -2644458.003 10 0 60547 6300.00000 0 -2449836.341 25373631.595 573943.608 10 0 60547 7200.00000 0 -2273019.754 25115610.629 3781185.802 10 0 60547 8100.00000 0 -2122094.111 24455084.835 6914905.565 10 0 60547 9000.00000 0 -2051144.039 23409166.426 9914204.862 10 0 60547 9900.00000 0 -2109959.069 22007639.739 12720837.196 10 0 60547 10800.00000 0 -2341692.257 20291779.795 15280339.022 10 0 60547 11700.00000 0 -2780806.411 18312708.454 17543083.943 10 0 60547 12600.00000 0 -3451394.884 16129357.832 19465239.440 10 0 60547 13500.00000 0 -4365947.748 13806126.716 21009608.250 10 0 60547 14400.00000 0 -5524615.212 11410328.048 22146338.992 10 0 60547 15300.00000 0 -6914999.173 9009533.795 22853493.385 10 0 60547 16200.00000 0 -8512481.674 6668927.145 23117460.263 10 0 60547 17100.00000 0 -10281076.771 4448771.199 22933209.519 10 0 60547 18000.00000 0 -12174770.626 2402098.074 22304381.966 10 0 60547 18900.00000 0 -14139294.620 572712.880 21243214.064 10 0 60547 19800.00000 0 -16114258.398 -1006406.173 19770299.272 10 0 60547 20700.00000 0 -18035554.975 -2314246.655 17914190.586 10 0 60547 21600.00000 0 -19837938.737 -3342393.970 15710851.603 10 0 60547 22500.00000 0 -21457669.890 -4095131.616 13202966.073 10 0 60547 23400.00000 0 -22835115.916 -4589006.589 10439118.475 10 0 60547 24300.00000 0 -23917202.077 -4851878.971 7472860.645 10 0 60547 25200.00000 0 -24659608.944 -4921496.147 4361681.606 10 0 60547 26100.00000 0 -25028625.029 -4843651.916 1165899.890 10 0 60547 27000.00000 0 -25002576.712 -4670008.180 -2052500.756 10 0 60547 27900.00000 0 -24572774.950 -4455671.208 -5231070.073 10 0 60547 28800.00000 0 -23743938.272 -4256624.896 -8308101.238 10 0 60547 29700.00000 0 -22534073.381 -4127129.722 -11223828.549 10 0 60547 30600.00000 0 -20973817.292 -4117197.727 -13921589.437 10 0 60547 31500.00000 0 -19105267.519 -4270250.841 -16348927.935 10 0 60547 32400.00000 0 -16980348.330 -4621062.362 -18458617.890 10 0 60547 33300.00000 0 -14658780.542 -5194069.568 -20209585.760 10 0 60547 34200.00000 0 -12205739.011 -6002129.951 -21567714.739 10 0 60547 35100.00000 0 -9689295.079 -7045774.933 -22506514.348 10 0 60547 36000.00000 0 -7177750.270 -8312994.082 -23007642.208 10 0 60547 36900.00000 0 -4736972.165 -9779560.447 -23061267.528 10 0 60547 37800.00000 0 -2427843.255 -11409884.926 -22666268.910 10 0 60547 38700.00000 0 -303928.944 -13158365.174 -21830262.221 10 0 60547 39600.00000 0 1590538.234 -14971173.593 -20569457.515 10 0 60547 40500.00000 0 3222274.407 -16788410.277 -18908347.345 10 0 60547 41400.00000 0 4570093.082 -18546531.121 -16879232.062 10 0 60547 42300.00000 0 5625539.362 -20180949.358 -14521591.023 10 0 60547 43200.00000 0 6392983.962 -21628701.166 -11881311.766 10 0 60547 44100.00000 0 6889174.169 -22831062.982 -9009792.188 10 0 60547 45000.00000 0 7142261.963 -23736009.908 -5962933.537 10 0 60547 45900.00000 0 7190351.785 -24300411.196 -2800044.369 10 0 60547 46800.00000 0 7079630.853 -24491869.846 417322.421 10 0 60547 47700.00000 0 6862162.761 -24290128.471 3626575.855 10 0 60547 48600.00000 0 6593439.281 -23687982.063 6765311.973 10 0 60547 49500.00000 0 6329795.467 -22691659.341 9772533.003 10 0 60547 50400.00000 0 6125798.707 -21320656.959 12589836.067 10 0 60547 51300.00000 0 6031723.098 -19607034.088 15162547.874 10 0 60547 52200.00000 0 6091216.536 -17594197.553 17440783.210 10 0 60547 53100.00000 0 6339259.314 -15335229.068 19380406.902 10 0 60547 54000.00000 0 6800500.305 -12890824.965 20943881.223 10 0 60547 54900.00000 0 7488040.641 -10326934.646 22100983.223 10 0 60547 55800.00000 0 8402715.718 -7712196.079 22829379.186 10 0 60547 56700.00000 0 9532905.451 -5115274.563 23115046.288 10 0 60547 57600.00000 0 10854880.627 -2602214.471 22952534.431 10 0 60547 58500.00000 0 12333670.969 -233912.751 22345064.120 10 0 60547 59400.00000 0 13924418.963 1936182.414 21304459.176 10 0 60547 60300.00000 0 15574163.518 3864053.968 19850915.913 10 0 60547 61200.00000 0 17223979.743 5516698.660 18012613.211 10 0 60547 62100.00000 0 18811386.425 6873245.935 15825170.684 10 0 60547 63000.00000 0 20272921.606 7925567.962 13330964.779 10 0 60547 63900.00000 0 21546779.469 8678356.594 10578315.244 10 0 60547 64800.00000 0 22575398.935 9148665.088 7620556.852 10 0 60547 65700.00000 0 23307896.055 9364934.537 4515013.448 10 0 60547 66600.00000 0 23702238.362 9365546.326 1321893.529 10 0 60547 67500.00000 0 23727069.798 9196961.820 -1896871.842 10 0 60547 68400.00000 0 23363109.070 8911527.788 -5078826.609 10 0 60547 69300.00000 0 22604061.895 8565040.237 -8162199.673 10 0 60547 70200.00000 0 21457007.728 8214169.673 -11087103.717 10 0 60547 71100.00000 0 19942243.512 7913856.768 -13796699.469 10 0 60547 72000.00000 0 18092589.666 7714788.882 -16238302.526 10 0 60547 72900.00000 0 15952186.100 7661064.611 -18364410.925 10 0 60547 73800.00000 0 13574827.408 7788145.746 -20133633.242 10 0 60547 74700.00000 0 11021905.775 8121184.054 -21511498.850 10 0 60547 75600.00000 0 8360046.599 8673794.522 -22471134.333 10 0 60547 76500.00000 0 5658534.714 9447328.030 -22993792.661 10 0 60547 77400.00000 0 2986637.990 10430675.352 -23069224.495 10 0 60547 78300.00000 0 410939.370 11600612.052 -22695884.107 10 0 60547 79200.00000 0 -2007211.822 12922670.960 -21880965.492 10 0 60547 80100.00000 0 -4214023.391 14352506.661 -20640267.533 10 0 60547 81000.00000 0 -6165262.009 15837695.442 -18997890.381 10 0 60547 81900.00000 0 -7827850.058 17319895.613 -16985768.520 10 0 60547 82800.00000 0 -9180991.352 18737277.599 -14643049.241 10 0 60547 83700.00000 0 -10216779.348 20027121.487 -12015328.463 10 0 60547 84600.00000 0 -10940263.322 21128472.354 -9153758.760 10 0 60547 85500.00000 0 -11368970.894 21984740.948 -6114047.268 99